Location: *
(2.5500°S, 65.9667°W)
Time: 17:40:05
(UTC+00:00)

Transit 2A Rocket - All Passes

Search period start: 23 April 2024 00:00
Search period end: 03 May 2024 00:00
Orbit: 586 x 907 km, 66.7° (Epoch: 23 April)

Date Brightness Start Highest point End Pass type
(mag) Time Alt. Az. Time Alt. Az. Time Alt. Az.
23 Apr - 01:42:48 10° NNW 01:48:50 73° ENE 01:54:48 10° SSE night (unlit)
23 Apr - 14:12:46 10° SW 14:16:28 29° WNW 14:20:12 10° N daylight
24 Apr - 00:59:28 10° N 01:04:56 35° ENE 01:10:20 10° SE visible
24 Apr - 02:42:57 10° WNW 02:47:14 20° WSW 02:51:27 10° SSW night (unlit)
24 Apr - 13:28:20 10° SSW 13:32:36 78° WNW 13:36:53 10° NNE daylight
25 Apr - 00:17:08 10° NNE 00:21:01 18° ENE 00:24:52 10° ESE visible
25 Apr - 01:57:41 10° NW 02:03:18 40° WSW 02:08:50 10° S visible
25 Apr - 12:44:44 10° S 12:48:43 39° ESE 12:52:43 10° NE daylight
26 Apr - 01:13:20 10° NNW 01:19:23 82° WSW 01:25:22 10° SSE visible
26 Apr - 12:02:13 10° SSE 12:04:48 16° ESE 12:07:25 10° ENE daylight
26 Apr - 13:43:56 10° WSW 13:46:57 19° WNW 13:50:00 10° NNW daylight
27 Apr - 00:29:39 10° N 00:35:29 50° ENE 00:41:14 10° SE visible
27 Apr - 02:14:51 10° W 02:17:48 14° WSW 02:20:43 10° SW visible
27 Apr - 12:58:57 10° SW 13:03:03 47° WNW 13:07:13 10° N daylight
27 Apr - 23:46:45 10° NNE 23:51:33 25° ENE 23:56:19 10° ESE visible
28 Apr - 01:28:43 10° NW 01:33:50 29° WSW 01:38:52 10° SSW visible
28 Apr - 12:14:58 10° S 12:19:10 63° ESE 12:23:26 10° NNE daylight
28 Apr - 23:05:42 10° NE 23:07:36 11° ENE 23:09:29 10° E visible
29 Apr - 00:43:58 10° NNW 00:49:55 58° WSW 00:55:44 10° S visible
29 Apr - 11:31:48 10° SSE 11:35:16 24° ESE 11:38:45 10° NE daylight
29 Apr - 13:15:40 10° W 13:17:25 12° WNW 13:19:10 10° NW daylight
29 Apr - 23:59:57 10° NNW 00:06:00 70° ENE 00:11:54 10° SSE visible
30 Apr - 12:29:44 10° SW 12:33:29 30° WNW 12:37:18 10° N daylight
30 Apr - 23:16:39 10° N 23:22:03 34° ENE 23:27:23 10° SE visible
01 May - 01:00:01 10° WNW 01:04:20 20° WSW 01:08:37 10° SSW visible
01 May - 11:45:20 10° SSW 11:49:35 81° WNW 11:53:55 10° NNE daylight
01 May - 22:34:21 10° NNE 22:38:06 17° ENE 22:41:48 10° ESE visible
02 May - 00:14:45 10° NW 00:20:23 41° WSW 00:25:55 10° S visible
02 May - 11:01:45 10° S 11:05:41 37° ESE 11:09:40 10° NE daylight
02 May - 23:30:23 10° NNW 23:36:28 84° WSW 23:42:23 10° SSE visible
